Location: Unspecified
(32.6953°N, 0.0000°E)
Time: 04:01:17
(UTC+00:00)

Meteor 1-23 Rocket - Visible Passes

Search period start: 04 April 2026 00:00
Search period end: 14 April 2026 00:00
Orbit: 841 x 881 km, 81.3° (Epoch: 29 March)

Date Brightness Start Highest point End Pass type
(mag) Time Alt. Az. Time Alt. Az. Time Alt. Az.
4 Apr 6.8 19:49:32 10° NW 19:53:40 21° W 19:57:46 10° SW visible
5 Apr 6.8 19:40:38 10° NW 19:44:50 21° W 19:48:59 10° SW visible
6 Apr 6.9 19:31:45 10° NW 19:35:59 22° W 19:40:12 10° SW visible
7 Apr 6.9 19:22:52 10° NW 19:27:09 22° W 19:31:25 10° SW visible
8 Apr 6.9 19:13:58 10° NW 19:18:19 23° W 19:22:38 10° SW visible
9 Apr 6.9 19:05:05 10° NW 19:09:29 23° W 19:13:50 10° SW visible
10 Apr 6.9 18:56:12 10° NW 19:00:39 24° W 19:05:03 10° SW visible
11 Apr 6.9 18:47:19 10° NW 18:51:48 24° W 18:56:15 10° SW visible
